| time (UTC) | temp F | wind direction | speed knots | gust knots | rain 1hr in | rain 24hr in | rain mn in | humidity % | barometer mb |
| 20260504044550 | 54 | 76 | 0.0 | 0.9 | 0.00 | 0.00 | 0.00 | 68 | 1014.0 |
| 20260504043054 | 54 | 0 | 0.0 | 0.9 | 0.00 | 0.00 | 0.00 | 68 | 1014.0 |
| 20260504041551 | 54 | 0 | 0.0 | 0.9 | 0.00 | 0.00 | 0.00 | 67 | 1013.9 |
| 20260504034555 | 54 | 35 | 0.0 | 1.7 | 0.00 | 0.00 | 0.00 | 67 | 1014.3 |
| 20260504033043 | 53 | 45 | 0.0 | 0.9 | 0.00 | 0.00 | 0.00 | 67 | 1014.3 |
| 20260504031546 | 53 | 0 | 0.0 | 1.7 | 0.00 | 0.00 | 0.00 | 69 | 1014.4 |
| 20260504030047 | 53 | 0 | 0.0 | 0.9 | 0.00 | 0.00 | 0.00 | 69 | 1014.8 |
| 20260504024544 | 53 | 0 | 0.0 | 0.9 | 0.00 | 0.00 | 0.00 | 69 | 1014.8 |
| 20260504023048 | 53 | 0 | 0.0 | 0.9 | 0.00 | 0.00 | 0.00 | 69 | 1014.9 |
| 20260504021547 | 53 | 0 | 0.0 | 0.0 | 0.00 | 0.00 | 0.00 | 68 | 1015.0 |
| 20260504020054 | 53 | 0 | 0.0 | 0.0 | 0.00 | 0.00 | 0.00 | 70 | 1014.9 |
| 20260504014550 | 54 | 0 | 0.0 | 0.0 | 0.00 | 0.00 | 0.00 | 66 | 1015.0 |
| 20260504013042 | 55 | 0 | 0.0 | 0.0 | 0.00 | 0.00 | 0.00 | 62 | 1015.1 |
| 20260504011548 | 56 | 0 | 0.0 | 0.0 | 0.00 | 0.00 | 0.00 | 63 | 1015.2 |
| 20260504010046 | 57 | 0 | 0.0 | 0.0 | 0.00 | 0.00 | 0.00 | 58 | 1014.8 |
| 20260504004546 | 57 | 0 | 0.0 | 0.0 | 0.00 | 0.00 | 0.00 | 58 | 1014.7 |
| 20260504003047 | 58 | 0 | 0.0 | 0.9 | 0.00 | 0.00 | 0.00 | 57 | 1014.5 |
| 20260504001543 | 58 | 0 | 0.0 | 0.0 | 0.00 | 0.00 | 0.00 | 56 | 1014.3 |
| 20260504000046 | 59 | 0 | 0.0 | 1.7 | 0.00 | 0.00 | 0.00 | 56 | 1014.4 |
| 20260503234547 | 60 | 90 | 0.9 | 2.6 | 0.00 | 0.00 | 0.00 | 55 | 1014.4 |
| 20260503233045 | 61 | 0 | 0.0 | 2.6 | 0.00 | 0.00 | 0.00 | 51 | 1014.4 |
| 20260503231544 | 61 | 75 | 1.7 | 2.6 | 0.00 | 0.00 | 0.00 | 47 | 1014.5 |
| 20260503230056 | 61 | 88 | 0.0 | 1.7 | 0.00 | 0.00 | 0.00 | 49 | 1014.8 |
| 20260503224541 | 61 | 85 | 0.9 | 1.7 | 0.00 | 0.00 | 0.00 | 48 | 1015.1 |
| 20260503223046 | 61 | 82 | 1.7 | 2.6 | 0.00 | 0.00 | 0.00 | 45 | 1015.4 |
| 20260503221546 | 62 | 59 | 1.7 | 2.6 | 0.00 | 0.00 | 0.00 | 46 | 1015.6 |
| 20260503220046 | 62 | 87 | 1.7 | 3.5 | 0.00 | 0.00 | 0.00 | 43 | 1015.6 |
| 20260503214543 | 63 | 0 | 0.9 | 2.6 | 0.00 | 0.00 | 0.00 | 44 | 1016.1 |
| 20260503213043 | 63 | 82 | 1.7 | 3.5 | 0.00 | 0.00 | 0.00 | 42 | 1016.0 |
| 20260503211606 | 63 | 94 | 0.9 | 3.5 | 0.00 | 0.00 | 0.00 | 44 | 1016.2 |
| 20260503210047 | 63 | 64 | 0.9 | 2.6 | 0.00 | 0.00 | 0.00 | 42 | 1015.9 |
| 20260503204545 | 63 | 97 | 0.9 | 6.1 | 0.00 | 0.00 | 0.00 | 43 | 1016.3 |
| 20260503203048 | 63 | 0 | 0.9 | 2.6 | 0.00 | 0.00 | 0.00 | 41 | 1016.4 |
| 20260503201548 | 62 | 94 | 0.9 | 3.5 | 0.00 | 0.00 | 0.00 | 44 | 1016.8 |
| 20260503200058 | 62 | 96 | 0.9 | 4.3 | 0.00 | 0.00 | 0.00 | 41 | 1017.1 |
| 20260503194546 | 63 | 79 | 0.9 | 2.6 | 0.00 | 0.00 | 0.00 | 42 | 1017.5 |
| 20260503193056 | 62 | 42 | 1.7 | 4.3 | 0.00 | 0.00 | 0.00 | 40 | 1017.9 |
| 20260503191548 | 63 | 114 | 1.7 | 6.1 | 0.00 | 0.00 | 0.00 | 43 | 1018.1 |
| 20260503190048 | 63 | 76 | 0.9 | 5.2 | 0.00 | 0.00 | 0.00 | 43 | 1018.5 |
| 20260503184600 | 63 | 44 | 1.7 | 3.5 | 0.00 | 0.00 | 0.00 | 41 | 1019.1 |
| 20260503183045 | 62 | 44 | 1.7 | 4.3 | 0.00 | 0.00 | 0.00 | 45 | 1019.0 |
| 20260503181602 | 63 | 95 | 2.6 | 3.5 | 0.00 | 0.00 | 0.00 | 42 | 1019.3 |
| 20260503180059 | 63 | 97 | 0.9 | 2.6 | 0.00 | 0.00 | 0.00 | 41 | 1019.3 |
| 20260503174555 | 62 | 21 | 0.9 | 4.3 | 0.00 | 0.00 | 0.00 | 45 | 1019.5 |
| 20260503173057 | 61 | 63 | 1.7 | 7.0 | 0.00 | 0.00 | 0.00 | 38 | 1019.8 |
| 20260503171544 | 62 | 212 | 1.7 | 2.6 | 0.00 | 0.00 | 0.00 | 42 | 1019.9 |
| 20260503081546 | 34 | 0 | 0.0 | 0.0 | 0.00 | 0.00 | 0.00 | 87 | 1020.0 |
| 20260503071552 | 35 | 0 | 0.0 | 0.0 | 0.00 | 0.00 | 0.00 | 87 | 1019.7 |